Regional Weather Roundup
Issued by NWS

Home | Current Version | Previous Version | Text Only | Print | Product List | Glossary On
Versions: 1 2 3 4 5 6 7 8 9 10 11 12 13 14 15 16 17 18 19 20 21 22 23 24 25 26 27 28 29 30 31 32 33 34 35 36 37 38 39 40 41 42 43 44 45 46 47 48 49 50
000
ASUS43 KBIS 222210
RWRND

NORTH DAKOTA REGIONAL WEATHER ROUNDUP
NATIONAL WEATHER SERVICE BISMARCK ND
500 PM CDT TUE AUG 22 2017

NOTE: "FAIR" INDICATES FEW OR NO CLOUDS BELOW 12,000 FEET WITH NO
SIGNIFICANT WEATHER AND/OR OBSTRUCTIONS TO VISIBILITY.


NDZ001>003-009>011-017-222300-
NORTHWEST NORTH DAKOTA

CITY           SKY/WX    TMP DP  RH WIND       PRES   REMARKS
WILLISTON      SUNNY     80  40  23 VRB3      30.13F
MINOT          SUNNY     79  37  22 VRB6      30.12F
MINOT AFB      SUNNY     77  36  23 N7        30.10F
$$

NDZ018>021-031>035-040>046-222300-
SOUTHWEST NORTH DAKOTA

CITY           SKY/WX    TMP DP  RH WIND       PRES   REMARKS
BISMARCK       SUNNY     78  38  23 W9        30.15F
DICKINSON      SUNNY     78  41  26 VRB5      30.14F
GARRISON         N/A     77  38  24 NW9       30.13F
HETTINGER ARPT SUNNY     80  41  24 VRB6      30.16F
$$

NDZ004>008-012>016-024-026-027-054-222300-
NORTHEAST NORTH DAKOTA

CITY           SKY/WX    TMP DP  RH WIND       PRES   REMARKS
GRAND FORKS    MOSUNNY   77  46  33 N16       30.05S
GRND FRKS AFB  SUNNY     75  43  31 N17       30.07R
DEVILS LAKE    SUNNY     73  40  30 NW10G22   30.12S
$$

NDZ022-023-025-028>030-036>039-047>053-222300-
SOUTHEAST NORTH DAKOTA

CITY           SKY/WX    TMP DP  RH WIND       PRES   REMARKS
FARGO          MOSUNNY   76  43  30 NW17G28   30.06F
JAMESTOWN      SUNNY     73  46  38 NW15      30.12F
$$





USA.gov is the U.S. government's official web portal to all federal, state and local government web resources and services.